This is the latest recevied weather packets stored in our database for station/object KJ4RDP-13. If no packets are shown the sender has not sent any weather packets the latest 10 day(s).
| Time | Temp. | Humidity | Pressure | Rain* | Wind** | Luminosity | Snow |
|---|---|---|---|---|---|---|---|
| 1777908562 | 18.89° C | 48% | 1017.5 hPa | 0 mm | - | 610 W/m² | - |
| 1777908259 | 18.33° C | 45% | 1017.5 hPa | 0 mm | - | 662 W/m² | - |
| 1777907955 | 18.89° C | 47% | 1017.5 hPa | 0 mm | - | 668 W/m² | - |
| 1777907650 | 18.89° C | 49% | 1017.5 hPa | 0 mm | - | 670 W/m² | - |
| 1777907346 | 18.89° C | 48% | 1017.8 hPa | 0 mm | - | 655 W/m² | - |
| 1777907043 | 18.33° C | 49% | 1017.8 hPa | 0 mm | - | 650 W/m² | - |
| 1777906740 | 18.33° C | 47% | 1017.8 hPa | 0 mm | - | 638 W/m² | - |
| 1777906436 | 17.78° C | 51% | 1017.8 hPa | 0 mm | - | 653 W/m² | - |
| 1777906134 | 17.78° C | 52% | 1017.8 hPa | 0 mm | - | 623 W/m² | - |
| 1777905830 | 17.22° C | 55% | 1017.8 hPa | 0 mm | - | 607 W/m² | - |
| 1777905527 | 16.67° C | 54% | 1017.8 hPa | 0 mm | - | 609 W/m² | - |
| 1777905224 | 16.67° C | 56% | 1017.8 hPa | 0 mm | - | 593 W/m² | - |
| 1777904922 | 16.67° C | 52% | 1017.8 hPa | 0 mm | - | 571 W/m² | - |
| 1777904618 | 16.67° C | 54% | 1017.8 hPa | 0 mm | - | 548 W/m² | - |
| 1777904316 | 16.11° C | 61% | 1017.8 hPa | 0 mm | - | 481 W/m² | - |
| 1777904013 | 16.11° C | 57% | 1017.8 hPa | 0 mm | - | 484 W/m² | - |
| 1777903709 | 15.56° C | 63% | 1017.8 hPa | 0 mm | - | 540 W/m² | - |
| 1777903405 | 15° C | 66% | 1017.8 hPa | 0 mm | - | 498 W/m² | - |
| 1777903102 | 14.44° C | 67% | 1017.8 hPa | 0 mm | - | 510 W/m² | - |
| 1777902798 | 13.89° C | 70% | 1017.8 hPa | 0 mm | - | 479 W/m² | - |
| 1777902496 | 13.33° C | 70% | 1017.8 hPa | 0 mm | - | 478 W/m² | - |
| 1777902193 | 13.89° C | 69% | 1017.8 hPa | 0 mm | - | 468 W/m² | - |
| 1777901891 | 13.89° C | 69% | 1017.8 hPa | 0 mm | - | 416 W/m² | - |
| 1777901588 | 12.78° C | 69% | 1017.8 hPa | 0 mm | - | 370 W/m² | - |
| 1777901285 | 12.78° C | 69% | 1017.8 hPa | 0 mm | - | 350 W/m² | - |
* Rain latest hour (hover to see other rain measurements)
** Current wind speed in m/s (hover to see current wind gust speed)